Content
SEND FEEDBACK

Daily
Averages
Monthly
Summary
Mexico

CANCUN, QUINTANA ROO


Home > North America > Mexico > Quintana Roo
Elevation: 9 meters     Latitude: 21 09N     Longitude: 086 49W

WEATHER
 
SELECT A DAY
Number of Records: 163,905;   Date Range: 1/1/95 - 8/10/14
 
SHARE

PRINT THIS DATA

[ ← Previous Day ]
WEATHER ALMANAC - 1 AUGUST, 2013
[ Next Day → ]
[ °F ]   °C
Weather ElementAverageHighLow
Temperature27.7 °C32 °C (10:44 am)23 °C (4:40 am)
Dewpoint23.8 °C25 °C (8:50 am)22 °C (5:43 am)
Humidity80 %100 % (4:40 am)62 % (10:44 am)
Barometer1014.6 hPa1015.9 hPa (9:48 am)1013.2 hPa (4:45 pm)
Wind Speed6.1 km/h14.8 km/h (12:47 pm)
Weather ElementAverage
Visibility10.8 km
Wind DirectionSSE (161.3 °)

Weather ElementTotal
Precipitation---
Cooling Degree Days9.2 (Base 18.3)
Growing Degree Days17.5 (Base 10)
Averaged from 23 records on 1 August, 2013
WEATHER CONDITIONS BREAKOUT
WIND DIRECTION BREAKOUT
WEATHER BY HOUR - 1 AUGUST, 2013
[ °F ]   °C
Local TimeTemperatureDewpointHumidityBarometerVisibilityWind DirectionWind SpeedGust SpeedPrecipitationEventsConditions
1:48 AM25 °C24 °C94 %1014.9 hPa9.7 kmWNW (300°)5.6 km/hScattered Clouds
2:48 AM25 °C24 °C94 %1014.2 hPa9.7 kmWNW (300°)3.7 km/hScattered Clouds
3:41 AM24 °C23 °C94 %1014.2 hPa9.7 kmWNW (300°)3.7 km/hScattered Clouds
4:40 AM23 °C23 °C100 %1013.5 hPa9.7 kmNW (320°)3.7 km/hScattered Clouds
5:43 AM23 °C22 °C94 %1013.5 hPa9.7 kmNW (320°)3.7 km/hScattered Clouds
6:40 AM23 °C22 °C94 %1014.6 hPa9.7 kmNNE (20°)5.6 km/hPartly Cloudy
7:44 AM26 °C24 °C89 %1014.9 hPa11.3 kmCalmPartly Cloudy
8:50 AM29 °C25 °C79 %1014.9 hPa11.3 kmNorth (350°)5.6 km/hScattered Clouds
9:48 AM30 °C25 °C74 %1015.9 hPa11.3 kmNorth (360°)3.7 km/hMostly Cloudy
10:44 AM32 °C24 °C62 %1015.6 hPa11.3 kmESE (120°)11.1 km/hMostly Cloudy
11:41 AM31 °C23 °C62 %1015.2 hPa11.3 kmEast (90°)9.3 km/hMostly Cloudy
12:47 PM31 °C24 °C66 %1015.2 hPa11.3 kmEast (90°)14.8 km/hMostly Cloudy
1:45 PM30 °C23 °C66 %1015.2 hPa11.3 kmNW (320°)7.4 km/hMostly Cloudy
2:44 PM31 °C24 °C66 %1013.9 hPa11.3 kmSSE (150°)9.3 km/hMostly Cloudy
3:47 PM31 °C23 °C62 %1013.9 hPa11.3 kmESE (110°)13 km/hMostly Cloudy
4:45 PM30 °C24 °C70 %1013.2 hPa11.3 kmENE (60°)7.4 km/hMostly Cloudy
5:43 PM30 °C24 °C70 %1013.5 hPa11.3 kmENE (70°)3.7 km/hMostly Cloudy
6:45 PM29 °C25 °C79 %1013.9 hPa11.3 kmENE (70°)3.7 km/hMostly Cloudy
7:44 PM28 °C23 °C74 %1013.5 hPa11.3 kmENE (60°)3.7 km/hScattered Clouds
8:43 PM27 °C24 °C84 %1014.2 hPa11.3 kmENE (60°)3.7 km/hScattered Clouds
9:48 PM27 °C24 °C84 %1013.9 hPa11.3 kmESE (110°)9.3 km/hScattered Clouds
10:47 PM27 °C25 °C89 %1015.2 hPa11.3 kmSE (130°)9.3 km/hScattered Clouds
11:46 PM26 °C25 °C94 %1015.2 hPa11.3 kmCalmScattered Clouds
Hourly data recorded from MMUN, located 0 kilometers away from Cancun, Quintana Roo







STORIES FROM OUR PARTNERS